Flag for U.S.A. Weather past 2 weeks in Santa Barbara, California, U.S.A.

Now
78 °F

Sunny.


Feels Like: 80 °F
Forecast: 63 / 79 °F
Wind: 8 mph from South

Location: Santa Barbara Municipal Airport

Current Time: Aug 31, 2015 at 1:58:10 PM

Latest Report: Aug 31, 2015 at 12:53 PM


Visibility: 10 mi

Pressure: 29.90 "Hg

Humidity: 64%

Dew point: 65 °F

Location of Santa BarbaraLocation

Historic Weather in Santa Barbara — Graph

°F

Santa Barbara temperature yesterday

Maximum temperature yesterday: 88 °F (at 4:53 PM)
Minimum temperature yesterday: 70 °F (at 4:53 AM)
Average temperature yesterday: 77 °F

Past Weeks' High & Low Weather Summary

 TemperatureHumidityPressure
High92 °F (Aug 29, 6:53 PM)97% (Aug 17, 6:53 AM)29.98 "Hg (Aug 17, 6:53 AM)
Low59 °F (Aug 20, 1:53 AM)29% (Aug 29, 7:53 PM)29.77 "Hg (Aug 30, 6:53 PM)
Average71 °F75%29.88 "Hg
* Reported Aug 16 12:53 PM — Aug 31 12:53 PM, Santa Barbara, Weather by CustomWeather, © 2015

Note: Actual official high and low records may vary slightly from our data, if they occured in-between our weather recording intervals... More about our weather records

Advertising

Santa Barbara weather history for previous 24 hours

 ConditionsComfort  
Time TempWeatherWind HumidityBarometerVisibility
12:53 PM
Mon, Aug 31
78 °FSunny.8 mph64%29.90 "Hg10 mi
11:53 AM76 °FSunny.6 mph64%29.90 "Hg10 mi
10:53 AM74 °FSunny.7 mph71%29.90 "Hg10 mi
9:53 AM74 °FSunny.6 mph69%29.90 "Hg10 mi
8:53 AM72 °FSunny.3 mph78%29.89 "Hg9 mi
7:53 AM71 °FSunny.3 mph78%29.88 "Hg8 mi
6:53 AM67 °FClear.6 mph85%29.86 "Hg9 mi
5:53 AM66 °FClear.5 mph84%29.84 "Hg10 mi
4:53 AM65 °FClear.3 mph85%29.83 "Hg10 mi
3:53 AM67 °FClear.3 mph85%29.82 "Hg10 mi
2:53 AM69 °FClear.3 mph81%29.82 "Hg10 mi
1:53 AM70 °FClear.5 mph81%29.82 "Hg10 mi
12:53 AM71 °FClear.8 mph78%29.82 "Hg10 mi
11:53 PM
Sun, Aug 30
72 °FClear.6 mph76%29.81 "Hg10 mi
10:53 PM72 °FPassing clouds.6 mph76%29.80 "Hg10 mi
9:53 PM73 °FPassing clouds.7 mph74%29.80 "Hg10 mi
8:53 PM72 °FClear.3 mph81%29.79 "Hg10 mi
7:53 PM75 °FPartly sunny.7 mph66%29.78 "Hg10 mi
6:53 PM76 °FPartly sunny.8 mph67%29.77 "Hg10 mi
5:53 PM80 °FSunny.7 mph56%29.79 "Hg10 mi
4:53 PM88 °FSunny.3 mph39%29.81 "Hg10 mi
3:53 PM85 °FSunny.7 mph46%29.82 "Hg10 mi
2:53 PM84 °FSunny.12 mph48%29.84 "Hg10 mi
1:53 PM84 °FSunny.9 mph48%29.86 "Hg10 mi
Weather by CustomWeather, © 2015

See weather overviewHow to use our weather pages